Theta_e
284 284 285 285 285 285 285 285 284 285 285 286 286 287 288 288 289 289 289 290 290 290 291 292 293 293 294
284 284 285 285 285 285 284 283 283 283 284 285 286 286 287 287 288 288 288 289 289 290 290 290 291 292 293
284 285 285 285 284 283 283 283 283 283 284 284 285 285 286 287 287 288 288 288 288 288 289 289 290 291 291
285 285 284 284 283 283 283 283 283 283 283 284 284 285 285 285 286 286 286 286 287 287 288 288 288 289 290
285 284 283 283 283 283 283 283 283 283 283 284 284 284 285 285 285 285 284 285 286 286 287 287 288 288 289
283 283 283 283 283 283 283 282 283 284 284 283 284 284 285 285 285 285 285 286 286 287 287 287 287 288 289
283 283 283 283 284 283 283 282 283 283 283 283 285 284 285 285 286 286 286 286 286 287 287 287 287 288 288
283 283 283 283 282 282 282 282 283 283 282 281 285 284 284 286 288 287 287 285 286 287 287 288 288 288 288
283 282 282 283 282 282 282 281 282 282 285 282 283 283 284 286 287 287 286 287 288 288 287 287 287 288 289
282 283 283 284 284 282 282 281 281 280 285 282 282 282 283 284 287 288 289 290 288 288 288 288 288 288 288
283 284 284 284 284 284 284 282 282 281 286 282 282 284 282 283 287 288 288 290 289 289 291 291 291 290 288
283 284 284 284 285 285 285 285 284 285 286 285 283 284 284 283 284 288 290 289 288 289 290 291 291 291 289
281 283 284 285 285 285 285 285 286 286 286 286 286 286 285 284 285 288 289 288 289 289 291 291 292 292 290
283 284 284 285 285 284 285 285 285 287 287 287 287 286 287 289 288 289 289 289 290 290 292 292 292 291 289
284 284 284 284 285 285 285 285 285 285 286 287 288 288 289 289 289 289 289 289 290 291 292 293 293 292 290
284 284 284 284 284 285 285 285 285 286 286 286 287 289 290 291 290 290 290 289 290 292 292 293 294 293 290
284 284 284 284 284 285 285 285 286 286 286 286 287 287 286 287 290 291 290 290 290 291 292 292 293 292 290
Wind_Speed
44 43 37 34 32 31 30 38 40 36 36 37 37 38 38 39 40 41 41 42 42 43 43 43 43 42 43
44 45 42 36 33 32 43 34 35 36 35 35 38 38 37 37 39 40 40 41 41 41 41 42 42 42 42
43 46 41 34 44 40 40 34 37 38 36 36 36 35 35 36 38 40 41 42 41 41 42 43 43 44 44
39 32 42 43 39 38 42 38 40 40 41 37 37 36 37 38 39 39 38 38 39 40 40 40 41 42 42
37 41 41 37 37 39 40 42 43 40 42 31 42 45 45 40 38 38 35 35 36 37 38 39 39 40 41
39 37 38 35 40 38 39 44 47 33 37 48 43 47 43 41 41 38 38 38 38 39 39 40 41 41 41
34 32 39 38 39 46 43 40 42 44 46 48 46 45 43 45 42 34 28 33 35 36 37 38 40 41 42
29 35 34 38 38 35 37 39 41 42 33 42 45 44 48 47 36 28 36 32 33 34 35 36 36 37 40
29 30 34 29 26 27 33 34 42 42 40 28 33 47 48 45 36 41 39 34 34 32 33 35 38 38 40
34 30 27 25 25 24 27 33 37 35 34 32 41 35 29 32 45 46 43 40 37 35 31 32 34 37 41
30 30 29 28 28 27 29 29 33 34 36 31 39 39 30 40 52 49 43 46 41 33 27 29 29 28 35
29 31 32 33 31 30 30 28 27 32 30 26 33 35 39 46 47 46 44 43 39 30 36 31 28 29 30
32 33 33 32 32 33 30 29 30 29 26 25 28 32 36 40 44 41 44 47 29 40 34 31 25 22 21
33 33 33 33 33 33 33 34 36 34 28 28 28 30 34 32 29 34 39 34 46 38 31 24 19 16 12
32 34 33 34 33 32 31 32 34 37 37 33 30 30 28 26 25 30 37 41 41 33 27 23 18 11 7
32 33 33 34 33 31 29 31 33 34 36 36 35 36 35 31 17 27 36 41 43 32 24 23 21 12 5
33 31 32 32 31 30 30 32 31 31 34 31 31 30 30 29 22 24 33 39 42 38 23 24 18 12 5
Wind_Direction
308 316 314 312 310 308 306 306 303 301 300 300 297 293 291 289 287 285 282 280 277 275 273 270 267 264 261
311 315 314 314 310 308 310 308 304 306 303 302 296 293 292 291 288 285 282 280 277 275 272 268 265 261 260
302 310 311 311 311 310 314 311 311 309 307 303 301 298 296 294 290 286 283 279 277 275 272 269 265 263 260
298 306 309 310 312 311 312 315 312 313 313 306 305 301 298 296 292 288 284 280 276 273 269 266 264 261 258
314 309 309 311 311 314 308 312 310 313 310 310 307 310 313 310 305 302 289 285 280 276 271 267 264 261 257
309 305 306 308 313 310 310 311 311 316 308 307 314 314 316 317 315 302 293 286 280 276 272 268 265 260 257
303 302 307 311 314 311 310 305 304 308 318 308 323 312 320 320 320 316 302 290 285 279 274 269 265 260 257
305 307 307 305 304 302 303 306 308 316 314 300 323 316 322 320 323 322 325 297 290 284 278 272 267 261 256
307 304 310 311 310 310 312 316 314 317 327 307 313 315 321 324 331 329 322 311 308 302 287 274 265 261 257
313 317 321 324 329 320 319 318 316 314 325 314 318 323 319 316 321 328 331 328 322 314 302 284 272 263 256
321 328 333 332 332 330 329 323 317 306 329 319 314 321 309 305 321 328 330 332 328 324 315 309 300 275 253
330 334 334 334 335 333 331 329 322 318 330 329 314 318 316 308 303 323 332 332 329 315 321 321 310 293 259
331 333 335 333 333 335 336 336 332 336 338 339 332 331 322 303 301 322 328 330 334 326 328 326 318 304 279
334 335 334 334 336 337 338 342 339 341 346 349 346 340 326 328 322 326 335 318 332 337 333 330 325 314 269
336 336 337 336 337 339 340 342 340 340 342 349 353 346 344 340 324 341 337 337 343 346 347 350 354 324 302
338 339 339 339 339 341 342 344 340 342 344 349 350 352 352 356 352 347 356 350 354 358 2 4 7 2 332
340 341 341 341 341 342 344 344 341 343 345 348 354 352 339 329 346 9 3 4 2 6 9 24 24 25 37